FENGYUN 1C DEB, 29751

Orbit data source: Space-Track

FENGYUN 1C DEB, 29751 is space debris in SSO originally from a launch on Mon, 10 May 1999 UTC launched from the Taiyaun Space Center, China (TSC). Fengyun 1C debris stems from the Chinese weather satellite Fengyun-1C, which was intentionally destroyed by a Chinese anti-satellite missile in 2007. This event dramatically increased the amount of space debris, with thousands of trackable fragments posing hazards to satellites and human spaceflight. The Fengyun 1C debris cloud has become a focal point in discussions about space sustainability and the need for international regulations to prevent the creation of new debris.

Loading next visibility...
Identifier
29751, 1999-025AR
Orbit
SSO
Country
Flag of CNCN / PRC
Related business
Manufacturer
Unknown
Mission
Spacecraft
Bus & Motor
Unknown
Mass
Unknown
Launch date (UTC)
1999-05-10 (27 years ago)
Launch vehicle
Unknown
Launch site
Taiyaun Space Center, China (TSC)
Object type
Payload
Rocket body
Debris
Shape & HBR
Unknown shape, 0.1 m
Radar Cross Section
Small (<0.1 m²)

Expand to show TLE details & history
Last TLE update: 12 hours ago

TLE from 12 hours ago
0 FENGYUN 1C DEB
1 29751U 99025AR  25353.58052490  .00000251  00000-0  12320-3 0  9999
2 29751  98.5407  21.2550 0090096 119.4971  42.7764 14.23634421981705
Epoch: 2025-12-19T13:55Z
TLE epoch observation values (Epoch: 2025-12-19T13:55:57.351Z)
Latitude
16.81118°
Longitude
-93.56691°
Altitude
768.09 km
Speed
7.496 km/s
True Right ascension
13h 35m 22s
True Declination
16° 42' 59"
Sunlit
Object was in daylight at epoch
Visualization orbit readout
Latitude
Unknown
Longitude
Unknown
Altitude
Unknown
Speed
Unknown
Apparent Right ascension
Unknown
Apparent Declination
Unknown
Sunlit
N/A
Visualization observer readout
Local Sidereal Time
01:18:02
Azimuth
Unknown
Elevation
Unknown
Doppler factor
Unknown
Orbital elements
Apogee altitude
874.997 km
Perigee altitude
745.469 km
Semi-major axis
7,188.37 km
Eccentricity
0.00901
Inclination
98.5407°
RAAN
21.255°
Arg. of periapsis
119.4971°
True anomaly
43.48338°
Mean anomaly
42.7764°
Eccentric anomaly
43.12931°
Mean motion
3.56121 °/min
Orbital period
101.09 mins
BSTAR
0.0001232
Loading maneuver chart data...
Computing Atmospheric mass density...

Documentation

Showing up to 5 results
|